Date String (YYYY-MM-DD hh:mm:ss) UTC,Instrument flags,Ambient pressure (hPa),Sample flow (lpm),Bypass flow (lpm),Sample temperature (°C),Ambient temperature (°C),ASC tube jacket temperature (°C),LED temperature (°C),Box temperature (°C),Sample RH (%),Span deviation,Mass concentration (μg/m³),Mass concentration (μg/m³),Mass concentration (μg/m³)
DateTimeUTC,F1_M11,P_M11,Q1_M11,Q2_M11,T1_M11,T2_M11,T3_M11,T4_M11,T5_M11,U1_M11,ZSPAN_M11,X0_M11,X2_M11,X1_M11
2022-01-20 22:00:00,,0827.4,4.99,0.00,22.6,22.4,00.0,31.4,24.4,12.5,-000.4,0017.94,0014.13,0013.65
2022-01-20 22:01:00,,0827.4,5.01,0.00,22.6,22.3,00.0,31.4,24.3,12.5,-000.4,0018.08,0014.12,0013.66
2022-01-20 22:02:00,,0827.4,4.99,0.00,22.5,22.2,00.0,31.4,24.3,12.6,-000.6,0018.21,0014.16,0013.67
2022-01-20 22:03:00,,0827.4,5.00,0.00,22.5,22.1,00.0,31.4,24.3,12.6,-000.7,0018.18,0014.17,0013.68
2022-01-20 22:04:00,,0827.3,5.00,0.00,22.5,22.0,00.0,31.4,24.3,12.7,-000.7,0018.22,0014.20,0013.70
2022-01-20 22:05:00,,0827.4,4.96,0.00,22.5,22.0,00.0,31.4,24.2,12.7,-000.7,0018.34,0014.25,0013.73
2022-01-20 22:06:00,,0827.4,5.00,0.00,22.5,21.9,00.0,31.4,24.2,12.7,-000.6,0018.35,0014.24,0013.74
2022-01-20 22:07:00,,0827.4,5.01,0.00,22.5,21.9,00.0,31.4,24.2,12.7,-000.4,0018.37,0014.22,0013.73
2022-01-20 22:08:00,,0827.4,4.99,0.00,22.5,21.9,00.0,31.4,24.2,12.7,-000.2,0018.45,0014.26,0013.76
2022-01-20 22:09:00,,0827.4,5.01,0.00,22.5,21.8,00.0,31.4,24.2,12.8,-000.2,0018.51,0014.31,0013.80
2022-01-20 22:10:00,,0827.4,5.00,0.00,22.4,21.8,00.0,31.4,24.2,12.8,-000.1,0018.67,0014.37,0013.83
2022-01-20 22:11:00,,0827.4,5.01,0.00,22.4,21.8,00.0,31.4,24.2,12.9,0000.0,0018.64,0014.43,0013.86
2022-01-20 22:12:00,,0827.4,4.99,0.00,22.4,21.8,00.0,31.4,24.2,12.9,0000.2,0018.59,0014.49,0013.90
2022-01-20 22:13:00,,0827.4,5.00,0.00,22.4,21.7,00.0,31.4,24.2,12.9,0000.1,0018.57,0014.49,0013.92
2022-01-20 22:14:00,,0827.4,5.00,0.00,22.4,21.7,00.0,31.4,24.1,12.9,0000.1,0018.64,0014.53,0013.96
2022-01-20 22:15:00,,0827.4,4.99,0.00,22.4,21.7,00.0,31.4,24.1,12.9,0000.0,0018.93,0014.57,0014.00
2022-01-20 22:16:00,,0827.4,5.01,0.00,22.4,21.7,00.0,31.3,24.1,13.0,-000.2,0019.00,0014.58,0014.01
2022-01-20 22:17:00,,0827.4,4.99,0.00,22.4,21.7,00.0,31.3,24.1,13.0,-000.3,0019.02,0014.60,0014.02
2022-01-20 22:18:00,,0827.4,5.01,0.00,22.4,21.7,00.0,31.3,24.1,13.0,-000.3,0019.15,0014.63,0014.07
2022-01-20 22:19:00,,0827.4,4.99,0.00,22.4,21.7,00.0,31.3,24.1,13.1,-000.4,0019.22,0014.62,0014.08
2022-01-20 22:20:00,,0827.4,4.99,0.00,22.4,21.7,00.0,31.3,24.1,13.1,-000.3,0019.20,0014.62,0014.08
2022-01-20 22:21:00,,0827.4,5.00,0.00,22.4,21.6,00.0,31.3,24.1,13.2,-000.3,0019.23,0014.65,0014.11
2022-01-20 22:22:00,,0827.4,5.02,0.00,22.4,21.6,00.0,31.3,24.1,13.2,-000.5,0019.26,0014.66,0014.11
2022-01-20 22:23:00,,0827.4,4.99,0.00,22.4,21.6,00.0,31.3,24.1,13.2,-000.6,0019.33,0014.70,0014.13
2022-01-20 22:24:00,,0827.4,5.01,0.00,22.3,21.6,00.0,31.3,24.1,13.3,-000.5,0019.45,0014.78,0014.19
2022-01-20 22:25:00,,0827.4,4.99,0.00,22.3,21.6,00.0,31.3,24.1,13.4,-000.5,0019.51,0014.79,0014.22
2022-01-20 22:26:00,,0827.4,5.01,0.00,22.3,21.6,00.0,31.3,24.1,13.4,-000.6,0019.43,0014.80,0014.22
2022-01-20 22:27:00,,0827.4,4.98,0.00,22.3,21.6,00.0,31.3,24.1,13.4,-000.5,0019.33,0014.79,0014.23
2022-01-20 22:28:00,,0827.4,5.02,0.00,22.3,21.6,00.0,31.3,24.1,13.5,-000.4,0019.40,0014.82,0014.26
2022-01-20 22:29:00,,0827.4,4.99,0.00,22.3,21.6,00.0,31.3,24.0,13.5,-000.6,0019.33,0014.84,0014.25
2022-01-20 22:30:00,,0827.4,5.01,0.00,22.3,21.6,00.0,31.3,24.0,13.5,-000.6,0019.23,0014.83,0014.23
2022-01-20 22:31:00,,0827.4,5.00,0.00,22.3,21.6,00.0,31.3,24.0,13.4,-000.7,0019.29,0014.82,0014.24
2022-01-20 22:32:00,,0827.4,4.98,0.00,22.3,21.6,00.0,31.3,24.0,13.4,-000.7,0019.35,0014.84,0014.24
2022-01-20 22:33:00,,0827.4,5.01,0.00,22.3,21.6,00.0,31.2,24.0,13.4,-000.8,0019.30,0014.86,0014.26
2022-01-20 22:34:00,,0827.2,5.00,0.00,22.3,21.5,00.0,31.2,24.0,13.4,-000.8,0019.26,0014.83,0014.25
2022-01-20 22:35:00,,0827.3,4.99,0.00,22.3,21.5,00.0,31.2,24.0,13.4,-000.9,0019.20,0014.78,0014.22
2022-01-20 22:36:00,,0827.7,5.02,0.00,22.2,21.5,00.0,31.2,24.0,13.4,-000.8,0019.16,0014.78,0014.20
2022-01-20 22:37:00,,0827.5,4.98,0.00,22.2,21.6,00.0,31.2,23.9,13.4,-000.8,0019.02,0014.76,0014.19
2022-01-20 22:38:00,,0827.3,4.99,0.00,22.3,22.2,00.0,31.3,24.1,13.4,-000.5,0019.06,0014.80,0014.21
2022-01-20 22:39:00,,0827.2,5.00,0.00,22.4,22.9,00.0,31.3,24.3,13.3,-000.5,0019.08,0014.82,0014.23
2022-01-20 22:40:00,,0827.3,5.02,0.00,22.5,23.1,00.0,31.3,24.5,13.2,-000.4,0019.06,0014.83,0014.26
2022-01-20 22:41:00,,0827.1,5.00,0.00,22.6,22.9,00.0,31.3,24.5,13.2,-000.4,0019.10,0014.89,0014.33
2022-01-20 22:42:00,,0827.1,5.00,0.00,22.6,22.7,00.0,31.4,24.5,13.2,-000.3,0019.28,0015.03,0014.44
2022-01-20 22:43:00,,0827.1,5.00,0.00,22.6,22.5,00.0,31.4,24.4,13.2,-000.3,0019.24,0015.07,0014.50
2022-01-20 22:44:00,,0827.1,5.01,0.00,22.6,22.4,00.0,31.4,24.4,13.2,-000.4,0019.27,0015.10,0014.55
2022-01-20 22:45:00,,0827.1,4.98,0.00,22.5,22.3,00.0,31.4,24.3,13.2,-000.3,0019.30,0015.15,0014.61
2022-01-20 22:46:00,,0827.1,5.00,0.00,22.5,22.2,00.0,31.4,24.3,13.2,-000.2,0019.48,0015.26,0014.68
2022-01-20 22:47:00,,0827.1,5.00,0.00,22.5,22.1,00.0,31.4,24.3,13.2,-000.1,0019.67,0015.36,0014.78
2022-01-20 22:48:00,,0827.1,5.02,0.00,22.5,22.0,00.0,31.4,24.2,13.3,0000.2,0019.83,0015.48,0014.89
2022-01-20 22:49:00,,0827.1,5.00,0.00,22.5,21.9,00.0,31.4,24.2,13.3,-000.1,0019.97,0015.56,0014.97
2022-01-20 22:50:00,,0827.2,4.99,0.00,22.5,21.9,00.0,31.4,24.2,13.3,-000.2,0020.11,0015.62,0015.03
2022-01-20 22:51:00,,0827.3,5.00,0.00,22.5,21.9,00.0,31.4,24.2,13.3,-000.2,0020.29,0015.72,0015.11
2022-01-20 22:52:00,,0827.3,5.01,0.00,22.5,21.9,00.0,31.4,24.2,13.4,-000.3,0020.42,0015.79,0015.17
2022-01-20 22:53:00,,0827.1,4.99,0.00,22.4,21.8,00.0,31.4,24.2,13.4,-000.4,0020.42,0015.76,0015.17
2022-01-20 22:54:00,,0827.1,5.02,0.00,22.4,21.8,00.0,31.4,24.2,13.4,-000.4,0020.74,0015.83,0015.21
2022-01-20 22:55:00,,0827.0,4.98,0.00,22.4,21.8,00.0,31.4,24.1,13.4,-000.5,0020.76,0015.85,0015.23
2022-01-20 22:56:00,,0827.0,5.02,0.00,22.4,21.7,00.0,31.4,24.1,13.4,-000.4,0020.76,0015.84,0015.22
2022-01-20 22:57:00,,0827.0,4.99,0.00,22.3,21.6,00.0,31.3,24.0,13.4,-000.6,0020.67,0015.79,0015.21
2022-01-20 22:58:00,,0827.0,5.02,0.00,22.3,21.4,00.0,31.3,23.9,13.4,-000.8,0020.61,0015.75,0015.19
2022-01-20 22:59:00,,0827.0,4.99,0.00,22.2,21.3,00.0,31.3,23.9,13.4,-001.0,0020.64,0015.76,0015.18
